Content
SEND FEEDBACK

Daily
Averages
Monthly
Summary
United States of America

MARIETTA, GEORGIA


Home > North America > United States > Georgia
Elevation: 1068 feet     Latitude: 33 55N     Longitude: 084 31W

WEATHER
 
SELECT A DAY
Number of Records: 200,242;   Date Range: 1/1/95 - 7/26/14
 
SHARE

PRINT THIS DATA

[ ← Previous Day ]
WEATHER ALMANAC - JANUARY 31, 2013
[ Next Day → ]
[ °C ]   °F
Weather ElementAverageHighLow
Temperature40 °F47.5 °F (3:55 pm)32.9 °F (7:55 am)
Dewpoint26 °F30.2 °F (1:49 am)22.3 °F (5:55 pm)
Humidity58.7 %74 % (7:55 am)39 % (3:55 pm)
Barometer30.05 in30.17 in (9:55 pm)29.88 in (1:49 am)
Wind Speed16 mph28.8 mph (1:49 am)
Wind Gust39.1 mph (1:49 am)
Weather ElementAverage
Visibility10 mi
Wind DirectionW (265.9 °)

Weather ElementTotal
Precipitation---
Heating Degree Days24.8 (Base 65)
Averaged from 27 records on January 31, 2013
WEATHER CONDITIONS BREAKOUT
WIND DIRECTION BREAKOUT
WEATHER BY HOUR - JANUARY 31, 2013
[ °C ]   °F
Local TimeTemperatureDewpointHumidityBarometerVisibilityWind DirectionWind SpeedGust SpeedPrecipitationEventsConditions
1:49 AM39.2 °F30.2 °F70 %29.88 in10.0 miWest (280°)28.8 mph39.1 mphOvercast
1:50 AM39.2 °F30.2 °F70 %29.89 in10.0 miWNW (290°)28.8 mph39.1 mphOvercast
1:51 AM39.2 °F30.2 °F70 %29.89 in10.0 miWNW (290°)25.3 mph39.1 mphOvercast
1:55 AM38.7 °F29.8 °F71 %29.89 in10.0 miWNW (290°)25.3 mph39.1 mphOvercast
2:00 AM39.2 °F28.4 °F65 %29.89 in10.0 miWNW (290°)24.2 mph36.8 mphOvercast
2:55 AM37.2 °F28.9 °F72 %29.93 in10.0 miWest (280°)17.3 mphMostly Cloudy
3:55 AM36.3 °F27.5 °F70 %29.95 in10.0 miWest (260°)16.1 mph24.2 mphOvercast
4:55 AM35.8 °F27.3 °F71 %29.98 in10.0 miWest (260°)13.8 mphOvercast
5:55 AM34.9 °F26.2 °F71 %30.01 in10.0 miWest (260°)17.3 mphOvercast
6:55 AM33.6 °F25.0 °F71 %30.03 in10.0 miWest (260°)15.0 mphPartly Cloudy
7:55 AM32.9 °F25.3 °F74 %30.05 in10.0 miWest (270°)13.8 mphPartly Cloudy
8:55 AM34.9 °F25.5 °F69 %30.07 in10.0 miWest (280°)15.0 mph24.2 mphPartly Cloudy
9:55 AM37.0 °F26.2 °F65 %30.09 in10.0 miWest (280°)17.3 mph26.5 mphPartly Cloudy
10:55 AM39.6 °F26.1 °F58 %30.11 in10.0 miWest (280°)17.3 mphPartly Cloudy
11:55 AM42.1 °F25.7 °F52 %30.13 in10.0 miWSW (250°)16.1 mph26.5 mphPartly Cloudy
12:55 PM44.4 °F25.2 °F47 %30.12 in10.0 miWest (270°)20.7 mph25.3 mphPartly Cloudy
1:55 PM46.0 °F24.4 °F43 %30.12 in10.0 miWest (270°)17.3 mph24.2 mphPartly Cloudy
2:55 PM46.2 °F23.2 °F40 %30.12 in10.0 miNW (310°)11.5 mph27.6 mphPartly Cloudy
3:55 PM47.5 °F23.5 °F39 %30.12 in10.0 miWest (280°)18.4 mph23.0 mphPartly Cloudy
4:55 PM46.9 °F22.8 °F39 %30.12 in10.0 miWest (270°)16.1 mphPartly Cloudy
5:55 PM44.6 °F22.3 °F41 %30.12 in10.0 miWest (270°)12.7 mphPartly Cloudy
6:55 PM41.4 °F23.5 °F49 %30.14 in10.0 miWest (260°)6.9 mphClear
7:55 PM40.5 °F24.6 °F53 %30.15 in10.0 miSSW (200°)3.5 mphClear
8:55 PM40.8 °F24.4 °F52 %30.16 in10.0 miWSW (240°)5.8 mphClear
9:55 PM40.5 °F24.6 °F53 %30.17 in10.0 miSW (230°)6.9 mphClear
10:55 PM40.6 °F25.3 °F54 %30.17 in10.0 miSW (230°)10.4 mphClear
11:55 PM40.5 °F25.7 °F56 %30.16 in10.0 miSW (230°)10.4 mphClear
Hourly data recorded from KMGE, located miles away from Marietta, Georgia







STORIES FROM OUR PARTNERS